Regional Weather Roundup
Issued by NWS State College, PA

Home | Current Version | Previous Version | Graphics & Text | Print | Product List | Glossary Off
Versions: 1 2 3 4 5 6 7 8 9 10 11 12 13 14 15 16 17 18 19 20 21 22 23 24 25 26 27 28 29 30 31 32 33 34 35 36 37 38 39 40 41 42 43 44 45 46 47 48 49 50

000
ASUS41 KCTP 201803
RWRCTP

REGIONAL WEATHER ROUNDUP
NATIONAL WEATHER SERVICE STATE COLLEGE PA
200 PM EDT THU JUL 20 2017

Note: "fair" indicates few or no clouds below 12,000 feet with no
significant weather and/or obstructions to visibility.

* = STATION THAT DOES NOT REPORT PRECIPITATION /E.G. RAIN...SNOW...ETC/
    THUNDER OR FOG.

PAZ002>004-007>009-013>016-020>023-029>032-201900-
WESTERN PENNSYLVANIA

CITY           SKY/WX    TMP DP  RH WIND       PRES   REMARKS
ERIE           MOSUNNY   83  70  64 W14G28    29.96F
MEADVILLE      LGT RAIN  79  74  84 VRB5      30.02S
FRANKLIN*      MOSUNNY   88  70  55 SW14      30.02F
NEW CASTLE     MOCLDY    87  71  58 SW12G18   30.00F
BEAVER COUNTY  PTSUNNY   86  70  58 SW9G17    30.03F
BUTLER*        MOSUNNY   88  70  55 W8G16     30.03S
PITTSBURGH INT PTSUNNY   87  68  52 SW9       30.02F
PITTSBURGH     MOSUNNY   86  64  47 W10       30.03F
INDIANA*       PTSUNNY   84  68  58 W8G17     30.06F
LATROBE        PTSUNNY   86  72  62 W12       30.04F
WASHINGTON CO* SUNNY     86  70  58 SW13G18   30.05F
$$

PAZ004>006-010>012-017>019-024>028-033>037-041-042-045-046-049>053-201900-
CENTRAL PENNSYLVANIA

CITY           SKY/WX    TMP DP  RH WIND       PRES   REMARKS
BRADFORD       CLOUDY    80  67  64 SW12G21   30.03F
DUBOIS         CLOUDY    84  65  52 SW13G20   30.03F
CLEARFIELD     CLOUDY    86  66  51 SW12G20   30.01F
JOHNSTOWN      MOSUNNY   82  64  54 W15G22    30.08F
ALTOONA        CLOUDY    86  70  58 W13       30.04F
STATE COLLEGE  MOSUNNY   86  70  58 SW12      30.00F
WILLIAMSPORT   MOSUNNY   90  70  51 W3        29.93F HX  95
SELINSGROVE    CLOUDY    88  72  58 SW6       29.96F
FT INDIANTOWN  PTSUNNY   89  71  55 SW13      29.96F HX  95
CAPITAL CITY   PTSUNNY   92  70  48 W9        29.95F HX  97
HARRISBURG     PTSUNNY   90  72  55 W7        29.95F HX  97
YORK           CLOUDY    90  72  55 SW8       29.98F HX  97
$$

PAZ038>040-043-044-047-048-054-055-060>062-067>071-201900-
EASTERN PENNSYLVANIA

CITY           SKY/WX    TMP DP  RH WIND       PRES   REMARKS
SCRANTON       MOSUNNY   88  70  55 SW13      29.96F
MOUNT POCONO   MOSUNNY   83  65  54 W10G21    30.03F
ALLENTOWN      MOSUNNY   91  66  43 NW10      29.95F
QUAKERTOWN*    CLEAR     91  68  46 W9        29.97F HX  95
READING        MOSUNNY   90  73  57 W9        29.96F HX  98
LANCASTER      CLOUDY    92  71  50 W10       29.97F HX  98
COATESVILLE    PTCLDY    88  72  58 SW5G12    30.00F
POTTSTOWN      CLOUDY    89  69  51 W6        29.97F
BLUE BELL      CLOUDY    90  72  55 NW5       29.96F HX  96
DOYLESTOWN     SUNNY     91  70  49 SW10      29.95F HX  96
WILLOW GROVE   NOT AVBL
NORTH PHILA    MOSUNNY   94  70  45 W13       29.94F HX 100
PHILADELPHIA   CLOUDY    94  66  39 W15       29.95F HX  97
$$




USA.gov is the U.S. government's official web portal to all federal, state and local government web resources and services.